TimeCDT,TemperatureF,Dew PointF,Humidity,Sea Level PressureIn,VisibilityMPH,Wind Direction,Wind SpeedMPH,Gust SpeedMPH,PrecipitationIn,Events,Conditions,WindDirDegrees,DateUTC
12:52 AM,71.6,69.8,94,29.91,10.0,SSE,3.5,-,N/A,,Clear,150,2012-10-20 05:52:00
1:52 AM,72.0,70.0,93,29.90,9.0,SE,4.6,-,N/A,,Clear,140,2012-10-20 06:52:00
2:52 AM,71.1,70.0,96,29.89,7.0,SSE,5.8,-,N/A,,Clear,150,2012-10-20 07:52:00
3:52 AM,72.0,70.0,93,29.87,6.0,SE,5.8,-,N/A,,Clear,130,2012-10-20 08:52:00
4:52 AM,72.0,70.0,93,29.86,6.0,SSE,5.8,-,N/A,,Clear,150,2012-10-20 09:52:00
5:52 AM,72.0,70.0,93,29.87,10.0,ESE,3.5,-,N/A,,Clear,110,2012-10-20 10:52:00
6:52 AM,71.1,69.1,93,29.88,4.0,SE,5.8,-,N/A,,Clear,140,2012-10-20 11:52:00
6:55 AM,71.6,69.8,94,29.88,10.0,SE,5.8,-,N/A,,Clear,140,2012-10-20 11:55:00
7:52 AM,72.0,71.1,97,29.88,10.0,SSE,6.9,-,N/A,,Clear,160,2012-10-20 12:52:00
8:08 AM,73.4,71.6,94,29.88,4.0,SSE,8.1,-,N/A,,Clear,160,2012-10-20 13:08:00
8:52 AM,77.0,73.9,90,29.90,5.0,SSE,8.1,-,N/A,,Clear,150,2012-10-20 13:52:00
9:52 AM,82.9,73.9,74,29.91,8.0,SSE,12.7,-,N/A,,Clear,160,2012-10-20 14:52:00
10:40 AM,84.2,73.4,70,29.91,9.0,SSE,15.0,-,N/A,,Mostly Cloudy,160,2012-10-20 15:40:00
10:52 AM,84.9,72.0,65,29.91,9.0,SSE,16.1,24.2,N/A,,Mostly Cloudy,160,2012-10-20 15:52:00
10:55 AM,84.2,71.6,66,29.91,9.0,South,16.1,-,N/A,,Mostly Cloudy,170,2012-10-20 15:55:00
11:43 AM,87.8,71.6,58,29.90,10.0,South,13.8,-,N/A,,Mostly Cloudy,180,2012-10-20 16:43:00
11:52 AM,87.1,71.1,59,29.90,10.0,South,15.0,-,N/A,,Scattered Clouds,170,2012-10-20 16:52:00
12:52 PM,91.0,69.1,48,29.88,10.0,South,17.3,23.0,N/A,,Scattered Clouds,170,2012-10-20 17:52:00
1:52 PM,93.2,68.0,44,29.84,10.0,SSE,16.1,21.9,N/A,,Scattered Clouds,160,2012-10-20 18:52:00
2:52 PM,91.0,68.0,47,29.81,10.0,SSE,17.3,26.5,N/A,,Partly Cloudy,160,2012-10-20 19:52:00
3:52 PM,91.4,68.0,46,29.79,10.0,SE,18.4,27.6,N/A,,Clear,140,2012-10-20 20:52:00
4:52 PM,90.0,66.9,46,29.79,10.0,SSE,21.9,27.6,N/A,,Clear,160,2012-10-20 21:52:00
5:52 PM,87.1,69.1,55,29.80,10.0,SSE,21.9,28.8,N/A,,Clear,160,2012-10-20 22:52:00
6:52 PM,82.9,71.1,67,29.81,10.0,SSE,15.0,24.2,N/A,,Partly Cloudy,150,2012-10-20 23:52:00
7:52 PM,81.0,72.0,74,29.83,10.0,SSE,15.0,-,N/A,,Clear,150,2012-10-21 00:52:00
8:52 PM,80.1,73.0,79,29.85,10.0,SE,12.7,-,N/A,,Clear,140,2012-10-21 01:52:00
9:52 PM,79.0,72.0,79,29.87,10.0,SSE,12.7,-,N/A,,Clear,150,2012-10-21 02:52:00
10:52 PM,78.1,72.0,81,29.88,10.0,SSE,10.4,-,N/A,,Clear,150,2012-10-21 03:52:00
11:52 PM,77.0,72.0,84,29.87,10.0,SSE,9.2,-,N/A,,Clear,160,2012-10-21 04:52:00